Grand Prairie, TX

4:17 AM CDT on August 17, 2017 (GMT -0500)
Grand Prairie Municipal

Weather History for KGPM - September, 2013

Change the Weather History Date:

Monday, September 30, 2013

  Actual Average (KRBD) Record (KRBD)
Temperature  
Mean Temperature 72 °F -  
Max Temperature 84 °F 81 °F 97 °F (1997)
Min Temperature 60 °F 59 °F 46 °F (1999)
Cooling Degree Days 7    
Growing Degree Days 22 (Base 50)    
Moisture  
Dew Point 56 °F    
Average Humidity 54    
Maximum Humidity 77    
Minimum Humidity 27    
Precipitation  
Precipitation 0.00 in - - ()
Sea Level Pressure  
Sea Level Pressure 29.89 in    
Wind  
Wind Speed 3 mph (SSE)    
Max Wind Speed 12 mph    
Max Gust Speed -    
Visibility 10 miles    
Events      
Averages and records for this station are not official NWS values.
T = Trace of Precipitation, MM = Missing Value Source: NWS Daily Summary

Daily Weather History Graph

Daily Weather History Graph

Search for Another Location

Airport or City:

Trip Planner

Search our weather history database for the weather conditions in past years. The results will help you decide how hot, cold, wet, or windy it might be!

Date:

Astronomy

Sep. 30, 2013 Rise Set
Actual Time 7:21 AM CDT 7:13 PM CDT
Civil Twilight 6:57 AM CDT 7:38 PM CDT
Nautical Twilight 6:28 AM CDT 8:06 PM CDT
Astronomical Twilight 5:59 AM CDT 8:35 PM CDT
Moon 3:12 AM CDT (9/30) 4:34 PM CDT (9/30)
Length of Visible Light 12h 41m
Length of Day
11h 51m
Waning Crescent, 19% of the Moon is Illuminated
Sep 30
Waning Crescent
Oct 4
New
Oct 11
First Quarter
Oct 18
Full
Oct 26
Last Quarter

Hourly Weather History & Observations

Time (CDT) Temp. Heat Index Dew Point Humidity Pressure Visibility Wind Dir Wind Speed Gust Speed Precip Events Conditions
6:50 AM 60.8 °F - 53.6 °F 77% 29.93 in 10.0 mi Calm Calm - N/A   Clear
7:50 AM 66.2 °F - 57.2 °F 73% 29.93 in 10.0 mi Calm Calm - N/A   Clear
8:50 AM 64.4 °F - 55.4 °F 73% 29.94 in 10.0 mi Calm Calm - N/A   Clear
9:50 AM 68.0 °F - 57.2 °F 68% 29.91 in 10.0 mi SE 6.9 mph - N/A   Clear
10:50 AM 75.2 °F - 51.8 °F 44% 29.94 in 10.0 mi Calm Calm - N/A   Clear
11:50 AM 78.8 °F - 50.0 °F 36% 29.93 in 10.0 mi SSE 3.5 mph - N/A   Clear
12:50 PM 80.6 °F - 46.4 °F 30% 29.92 in 10.0 mi SSE 5.8 mph - N/A   Clear
1:50 PM 82.4 °F - 46.4 °F 28% 29.89 in 10.0 mi South 6.9 mph - N/A   Clear
2:50 PM 84.2 °F - 46.4 °F 27% 29.86 in 10.0 mi South 9.2 mph - N/A   Clear
3:50 PM 84.2 °F - 48.2 °F 29% 29.85 in 10.0 mi ESE 6.9 mph - N/A   Clear
4:56 PM 84.2 °F - 50.0 °F 30% 29.85 in 10.0 mi SSE 11.5 mph - N/A   Clear
5:50 PM 84.2 °F - 51.8 °F 33% 29.84 in 10.0 mi South 6.9 mph - N/A   Clear
6:50 PM 80.6 °F 80.5 °F 55.4 °F 42% 29.85 in 10.0 mi SSE 5.8 mph - N/A   Clear
7:51 PM 78.8 °F - 57.2 °F 47% 29.86 in 10.0 mi Calm Calm - N/A   Clear
9:15 PM 73.4 °F - 60.8 °F 65% 29.88 in 10.0 mi Calm Calm - N/A   Clear
9:35 PM 73.4 °F - 60.8 °F 65% 29.88 in 10.0 mi South 3.5 mph - N/A   Clear
9:55 PM 73.4 °F - 60.8 °F 65% 29.89 in 10.0 mi South 3.5 mph - N/A   Clear
10:15 PM 73.4 °F - 60.8 °F 65% 29.89 in 10.0 mi South 3.5 mph - N/A   Clear
10:35 PM 73.4 °F - 60.8 °F 65% 29.89 in 10.0 mi Calm Calm - N/A   Clear
10:55 PM 73.4 °F - 60.8 °F 65% 29.89 in 10.0 mi Calm Calm - N/A   Clear
11:15 PM 71.6 °F - 60.8 °F 69% 29.89 in 10.0 mi Calm Calm - N/A   Clear
11:35 PM 71.6 °F - 62.6 °F 73% 29.88 in 10.0 mi Calm Calm - N/A   Clear
11:55 PM 71.6 °F - 62.6 °F 73% 29.88 in 10.0 mi Calm Calm - N/A   Clear